Location: Copeville
(33.0796°N, 96.4155°W)
Time: 12:24:05
(UTC+00:00)

OAO 2 Rocket - Pass Details

Date: 08 December 2021
Orbit: 676 x 745 km, 35.0° (Epoch: 22 January)

Event Time Altitude Azimuth Distance (km) Brightness Sun altitude
Exits shadow 12:04:52 15° 249° (WSW) 1,906 5.1 -14.7°
Maximum altitude 12:09:15 79° 164° (SSE) 733 3.4 -13.9°
Drops below altitude 10° 12:14:22 10° 78° (ENE) 2,177 6.8 -12.8°
Sets 12:16:45 0° 77° (ENE) 3,085 7.7 -12.4°
